| time (UTC) | temp C | wind direction | speed KPH | gust KPH | rain 1hr cm | rain 24hr cm | rain mn cm | humidity % | barometer mb |
| 20260507144600 | 13 | 224 | 0.0 | 4.8 | 0.00 | 0.00 | 0.00 | 47 | 1017.0 |
| 20260507144053 | 13 | 168 | 1.6 | 4.8 | 0.00 | 0.00 | 0.00 | 47 | 1017.0 |
| 20260507143552 | 13 | 141 | 0.0 | 4.8 | 0.00 | 0.00 | 0.00 | 50 | 1017.0 |
| 20260507143109 | 12 | 32 | 0.0 | 4.8 | 0.00 | 0.00 | 0.00 | 48 | 1017.1 |
| 20260507142553 | 12 | 192 | 1.6 | 8.0 | 0.00 | 0.00 | 0.00 | 48 | 1017.1 |
| 20260507142053 | 13 | 32 | 1.6 | 8.0 | 0.00 | 0.00 | 0.00 | 48 | 1017.1 |
| 20260507141613 | 13 | 72 | 0.0 | 3.2 | 0.00 | 0.00 | 0.00 | 48 | 1017.1 |
| 20260507141056 | 13 | 0 | 0.0 | 3.2 | 0.00 | 0.00 | 0.00 | 56 | 1017.2 |
| 20260507140553 | 12 | 169 | 0.0 | 4.8 | 0.00 | 0.00 | 0.00 | 55 | 1017.2 |
| 20260507140054 | 12 | 75 | 0.0 | 4.8 | 0.00 | 0.00 | 0.00 | 55 | 1017.3 |
| 20260507135553 | 12 | 0 | 0.0 | 6.4 | 0.00 | 0.00 | 0.00 | 53 | 1017.3 |
| 20260507135053 | 11 | 0 | 1.6 | 6.4 | 0.00 | 0.00 | 0.00 | 57 | 1017.3 |
| 20260507134556 | 11 | 0 | 1.6 | 6.4 | 0.00 | 0.00 | 0.00 | 59 | 1017.3 |
| 20260507134052 | 12 | 191 | 1.6 | 4.8 | 0.00 | 0.00 | 0.00 | 53 | 1017.2 |
| 20260507133553 | 12 | 0 | 0.0 | 6.4 | 0.00 | 0.00 | 0.00 | 59 | 1017.2 |
| 20260507133104 | 11 | 0 | 0.0 | 6.4 | 0.00 | 0.00 | 0.00 | 59 | 1017.2 |
| 20260507132552 | 11 | 0 | 0.0 | 4.8 | 0.00 | 0.00 | 0.00 | 62 | 1017.2 |
| 20260507132052 | 11 | 0 | 0.0 | 0.0 | 0.00 | 0.00 | 0.00 | 62 | 1017.2 |
| 20260507131610 | 11 | 0 | 0.0 | 0.0 | 0.00 | 0.00 | 0.00 | 60 | 1017.2 |
| 20260507131052 | 11 | 0 | 0.0 | 0.0 | 0.00 | 0.00 | 0.00 | 62 | 1017.3 |
| 20260507130553 | 11 | 0 | 0.0 | 0.0 | 0.00 | 0.00 | 0.00 | 61 | 1017.3 |
| 20260507130101 | 11 | 0 | 0.0 | 0.0 | 0.00 | 0.00 | 0.00 | 64 | 1017.2 |
| 20260507125553 | 11 | 0 | 0.0 | 0.0 | 0.00 | 0.00 | 0.00 | 62 | 1017.1 |
| 20260507125053 | 11 | 0 | 0.0 | 0.0 | 0.00 | 0.00 | 0.00 | 63 | 1017.2 |
| 20260507124553 | 11 | 0 | 0.0 | 0.0 | 0.00 | 0.00 | 0.00 | 66 | 1017.2 |
| 20260507124053 | 10 | 0 | 0.0 | 0.0 | 0.00 | 0.00 | 0.00 | 68 | 1017.3 |
| 20260507123553 | 10 | 0 | 0.0 | 0.0 | 0.00 | 0.00 | 0.00 | 69 | 1017.3 |
| 20260507123111 | 10 | 0 | 0.0 | 0.0 | 0.00 | 0.00 | 0.00 | 71 | 1017.3 |
| 20260507122553 | 10 | 0 | 0.0 | 0.0 | 0.00 | 0.00 | 0.00 | 70 | 1017.3 |
| 20260507122056 | 10 | 0 | 0.0 | 0.0 | 0.00 | 0.00 | 0.00 | 70 | 1017.3 |
| 20260507121557 | 10 | 0 | 0.0 | 0.0 | 0.00 | 0.00 | 0.00 | 70 | 1017.3 |
| 20260507121053 | 9 | 0 | 0.0 | 0.0 | 0.00 | 0.00 | 0.00 | 72 | 1017.5 |
| 20260507120552 | 9 | 0 | 0.0 | 0.0 | 0.00 | 0.00 | 0.00 | 78 | 1017.2 |
| 20260507120057 | 8 | 0 | 0.0 | 0.0 | 0.00 | 0.00 | 0.00 | 80 | 1017.2 |
| 20260507115553 | 8 | 0 | 0.0 | 0.0 | 0.00 | 0.00 | 0.00 | 81 | 1017.2 |
| 20260507115053 | 7 | 0 | 0.0 | 0.0 | 0.00 | 0.00 | 0.00 | 82 | 1017.2 |
| 20260507114601 | 6 | 0 | 0.0 | 0.0 | 0.00 | 0.00 | 0.00 | 84 | 1017.2 |
| 20260507114054 | 6 | 0 | 0.0 | 0.0 | 0.00 | 0.00 | 0.00 | 86 | 1017.3 |
| 20260507113552 | 6 | 0 | 0.0 | 0.0 | 0.00 | 0.00 | 0.00 | 87 | 1017.2 |
| 20260507113055 | 5 | 0 | 0.0 | 0.0 | 0.00 | 0.00 | 0.00 | 90 | 1017.2 |
| 20260507112553 | 5 | 0 | 0.0 | 0.0 | 0.00 | 0.00 | 0.00 | 92 | 1017.2 |
| 20260507112053 | 4 | 0 | 0.0 | 0.0 | 0.00 | 0.00 | 0.00 | 93 | 1017.2 |
| 20260507111553 | 3 | 0 | 0.0 | 0.0 | 0.00 | 0.00 | 0.00 | 94 | 1017.2 |
| 20260507111052 | 3 | 0 | 0.0 | 0.0 | 0.00 | 0.00 | 0.00 | 93 | 1017.1 |
| 20260507110553 | 2 | 0 | 0.0 | 0.0 | 0.00 | 0.00 | 0.00 | 93 | 1017.1 |
| 20260507110057 | 2 | 0 | 0.0 | 0.0 | 0.00 | 0.00 | 0.00 | 93 | 1017.0 |
| 20260507105552 | 2 | 0 | 0.0 | 0.0 | 0.00 | 0.00 | 0.00 | 93 | 1016.8 |
| 20260507105052 | 2 | 0 | 0.0 | 0.0 | 0.00 | 0.00 | 0.00 | 93 | 1016.8 |
| 20260507104604 | 2 | 0 | 0.0 | 0.0 | 0.00 | 0.00 | 0.00 | 93 | 1016.7 |
| 20260507104056 | 2 | 0 | 0.0 | 0.0 | 0.00 | 0.00 | 0.00 | 93 | 1016.6 |
| 20260507103555 | 2 | 0 | 0.0 | 0.0 | 0.00 | 0.00 | 0.00 | 93 | 1016.7 |
| 20260507103055 | 2 | 0 | 0.0 | 0.0 | 0.00 | 0.00 | 0.00 | 93 | 1016.6 |
| 20260507102552 | 2 | 0 | 0.0 | 0.0 | 0.00 | 0.00 | 0.00 | 93 | 1016.5 |
| 20260507102054 | 3 | 0 | 0.0 | 0.0 | 0.00 | 0.00 | 0.00 | 93 | 1016.6 |
| 20260507101553 | 3 | 0 | 0.0 | 0.0 | 0.00 | 0.00 | 0.00 | 93 | 1016.6 |
| 20260507101056 | 3 | 0 | 0.0 | 0.0 | 0.00 | 0.00 | 0.00 | 93 | 1016.7 |
| 20260507100552 | 3 | 0 | 0.0 | 0.0 | 0.00 | 0.00 | 0.00 | 93 | 1016.7 |
| 20260507100100 | 3 | 0 | 0.0 | 0.0 | 0.00 | 0.00 | 0.00 | 93 | 1016.6 |
| 20260507095553 | 3 | 0 | 0.0 | 0.0 | 0.00 | 0.00 | 0.00 | 93 | 1016.5 |
| 20260507095053 | 3 | 0 | 0.0 | 0.0 | 0.00 | 0.00 | 0.00 | 93 | 1016.5 |
| 20260507094555 | 3 | 0 | 0.0 | 0.0 | 0.00 | 0.00 | 0.00 | 93 | 1016.5 |
| 20260507094052 | 3 | 0 | 0.0 | 0.0 | 0.00 | 0.00 | 0.00 | 93 | 1016.6 |
| 20260507093553 | 3 | 0 | 0.0 | 0.0 | 0.00 | 0.00 | 0.00 | 93 | 1016.6 |
| 20260507093054 | 3 | 0 | 0.0 | 0.0 | 0.00 | 0.00 | 0.00 | 93 | 1016.6 |
| 20260507092552 | 3 | 0 | 0.0 | 0.0 | 0.00 | 0.00 | 0.00 | 92 | 1016.5 |
| 20260507092052 | 3 | 0 | 0.0 | 0.0 | 0.00 | 0.00 | 0.00 | 92 | 1016.5 |
| 20260507091553 | 3 | 0 | 0.0 | 0.0 | 0.00 | 0.00 | 0.00 | 92 | 1016.5 |
| 20260507091053 | 3 | 0 | 0.0 | 0.0 | 0.00 | 0.00 | 0.00 | 92 | 1016.4 |
| 20260507090553 | 3 | 0 | 0.0 | 0.0 | 0.00 | 0.00 | 0.00 | 92 | 1016.4 |
| 20260507090100 | 3 | 0 | 0.0 | 0.0 | 0.00 | 0.00 | 0.00 | 92 | 1016.4 |
| 20260507085553 | 3 | 0 | 0.0 | 0.0 | 0.00 | 0.03 | 0.00 | 92 | 1016.4 |
| 20260507085054 | 3 | 0 | 0.0 | 0.0 | 0.00 | 0.03 | 0.00 | 92 | 1016.4 |
| 20260507084555 | 3 | 0 | 0.0 | 0.0 | 0.00 | 0.03 | 0.00 | 92 | 1016.2 |
| 20260507084054 | 3 | 0 | 0.0 | 0.0 | 0.00 | 0.03 | 0.00 | 92 | 1016.1 |
| 20260507083558 | 3 | 0 | 0.0 | 0.0 | 0.00 | 0.03 | 0.00 | 92 | 1016.2 |
| 20260507083057 | 3 | 0 | 0.0 | 0.0 | 0.00 | 0.03 | 0.00 | 92 | 1016.3 |
| 20260507082551 | 4 | 0 | 0.0 | 0.0 | 0.00 | 0.03 | 0.00 | 92 | 1016.2 |
| 20260507082053 | 4 | 0 | 0.0 | 0.0 | 0.00 | 0.03 | 0.00 | 92 | 1016.1 |
| 20260507081556 | 4 | 0 | 0.0 | 0.0 | 0.00 | 0.03 | 0.00 | 92 | 1016.2 |
| 20260507081054 | 4 | 0 | 0.0 | 0.0 | 0.00 | 0.03 | 0.00 | 92 | 1016.0 |
| 20260507080556 | 4 | 0 | 0.0 | 0.0 | 0.00 | 0.03 | 0.00 | 92 | 1016.1 |
| 20260507080112 | 4 | 0 | 0.0 | 0.0 | 0.00 | 0.03 | 0.00 | 92 | 1016.1 |
| 20260507075553 | 4 | 0 | 0.0 | 0.0 | 0.00 | 0.18 | 0.00 | 92 | 1016.2 |
| 20260507075052 | 4 | 0 | 0.0 | 0.0 | 0.00 | 0.18 | 0.00 | 92 | 1016.1 |
| 20260507074556 | 4 | 0 | 0.0 | 0.0 | 0.00 | 0.18 | 0.00 | 92 | 1016.1 |
| 20260507074052 | 4 | 0 | 0.0 | 0.0 | 0.00 | 0.18 | 0.00 | 92 | 1016.1 |
| 20260507073556 | 5 | 0 | 0.0 | 0.0 | 0.00 | 0.18 | 0.00 | 92 | 1016.1 |
| 20260507073054 | 5 | 0 | 0.0 | 0.0 | 0.00 | 0.18 | 0.00 | 92 | 1016.1 |
| 20260507072557 | 5 | 0 | 0.0 | 0.0 | 0.00 | 0.18 | 0.00 | 92 | 1016.2 |
| 20260507072051 | 5 | 0 | 0.0 | 0.0 | 0.00 | 0.18 | 0.00 | 91 | 1016.1 |
| 20260507071554 | 5 | 0 | 0.0 | 0.0 | 0.00 | 0.18 | 0.00 | 91 | 1016.2 |
| 20260507071051 | 5 | 0 | 0.0 | 0.0 | 0.00 | 0.18 | 0.00 | 91 | 1016.1 |
| 20260507070552 | 5 | 0 | 0.0 | 0.0 | 0.00 | 0.18 | 0.00 | 91 | 1016.1 |
| 20260507070104 | 5 | 0 | 0.0 | 0.0 | 0.00 | 0.18 | 0.00 | 91 | 1016.1 |
| 20260507065559 | 5 | 0 | 0.0 | 0.0 | 0.00 | 0.43 | 0.00 | 91 | 1016.2 |
| 20260507065055 | 5 | 0 | 0.0 | 0.0 | 0.00 | 0.43 | 0.00 | 91 | 1016.1 |
| 20260507064629 | 5 | 0 | 0.0 | 0.0 | 0.00 | 0.43 | 0.00 | 91 | 1016.2 |
| 20260507064054 | 5 | 0 | 0.0 | 0.0 | 0.00 | 0.43 | 0.00 | 91 | 1016.1 |
| 20260507063554 | 5 | 0 | 0.0 | 0.0 | 0.00 | 0.43 | 0.00 | 91 | 1016.2 |
| 20260507063109 | 5 | 0 | 0.0 | 0.0 | 0.00 | 0.43 | 0.00 | 91 | 1016.3 |
| 20260507062552 | 5 | 0 | 0.0 | 0.0 | 0.00 | 0.43 | 0.00 | 91 | 1016.3 |
| 20260507062052 | 5 | 0 | 0.0 | 0.0 | 0.00 | 0.43 | 0.00 | 90 | 1016.4 |
| 20260507061555 | 5 | 0 | 0.0 | 0.0 | 0.00 | 0.43 | 0.00 | 90 | 1016.4 |
| 20260507061051 | 5 | 0 | 0.0 | 0.0 | 0.00 | 0.43 | 0.00 | 90 | 1016.4 |
| 20260507060552 | 5 | 0 | 0.0 | 0.0 | 0.00 | 0.43 | 0.00 | 90 | 1016.2 |
| 20260507060111 | 6 | 0 | 0.0 | 0.0 | 0.00 | 0.43 | 0.00 | 90 | 1016.3 |
| 20260507055552 | 6 | 0 | 0.0 | 0.0 | 0.00 | 0.79 | 0.00 | 89 | 1016.2 |
| 20260507055054 | 6 | 0 | 0.0 | 0.0 | 0.00 | 0.79 | 0.00 | 89 | 1016.3 |
| 20260507054602 | 6 | 0 | 0.0 | 0.0 | 0.00 | 0.79 | 0.00 | 89 | 1016.4 |
| 20260507054053 | 6 | 0 | 0.0 | 0.0 | 0.00 | 0.79 | 0.00 | 89 | 1016.4 |
| 20260507053552 | 6 | 0 | 0.0 | 0.0 | 0.00 | 0.79 | 0.00 | 89 | 1016.4 |
| 20260507053110 | 6 | 0 | 0.0 | 0.0 | 0.00 | 0.79 | 0.00 | 89 | 1016.4 |
| 20260507052554 | 6 | 0 | 0.0 | 0.0 | 0.00 | 0.79 | 0.00 | 89 | 1016.5 |
| 20260507052053 | 6 | 0 | 0.0 | 0.0 | 0.00 | 0.79 | 0.00 | 89 | 1016.5 |
| 20260507051605 | 6 | 0 | 0.0 | 0.0 | 0.00 | 0.79 | 0.00 | 89 | 1016.4 |
| 20260507051054 | 6 | 0 | 0.0 | 0.0 | 0.00 | 0.79 | 0.00 | 89 | 1016.3 |
| 20260507050552 | 6 | 0 | 0.0 | 0.0 | 0.00 | 0.79 | 0.00 | 88 | 1016.3 |
| 20260507050057 | 6 | 0 | 0.0 | 0.0 | 0.00 | 0.79 | 0.00 | 88 | 1016.4 |
| 20260507045552 | 6 | 0 | 0.0 | 0.0 | 0.00 | 1.19 | 0.00 | 88 | 1016.5 |
| 20260507045051 | 6 | 0 | 0.0 | 0.0 | 0.00 | 1.19 | 0.00 | 88 | 1016.5 |
| 20260507044628 | 6 | 0 | 0.0 | 0.0 | 0.00 | 1.19 | 0.00 | 88 | 1016.4 |
| 20260507044056 | 6 | 0 | 0.0 | 0.0 | 0.00 | 1.19 | 0.00 | 88 | 1016.5 |
| 20260507043554 | 6 | 0 | 0.0 | 0.0 | 0.00 | 1.19 | 0.00 | 87 | 1016.5 |
| 20260507043058 | 7 | 0 | 0.0 | 0.0 | 0.00 | 1.19 | 0.00 | 87 | 1016.5 |
| 20260507042557 | 7 | 0 | 0.0 | 0.0 | 0.00 | 1.19 | 0.00 | 87 | 1016.5 |
| 20260507042052 | 7 | 0 | 0.0 | 0.0 | 0.00 | 1.19 | 0.00 | 87 | 1016.4 |
| 20260507041559 | 7 | 0 | 0.0 | 0.0 | 0.00 | 1.19 | 0.00 | 87 | 1016.4 |
| 20260507041053 | 7 | 0 | 0.0 | 0.0 | 0.00 | 1.19 | 0.00 | 87 | 1016.5 |
| 20260507040553 | 7 | 0 | 0.0 | 0.0 | 0.00 | 1.19 | 0.00 | 87 | 1016.4 |
| 20260507040057 | 7 | 0 | 0.0 | 0.0 | 0.00 | 1.19 | 0.00 | 87 | 1016.4 |
| 20260507035552 | 7 | 0 | 0.0 | 0.0 | 0.00 | 1.30 | 1.19 | 87 | 1016.4 |
| 20260507035052 | 7 | 0 | 0.0 | 0.0 | 0.00 | 1.30 | 1.19 | 87 | 1016.5 |
| 20260507034556 | 7 | 0 | 0.0 | 0.0 | 0.00 | 1.30 | 1.19 | 87 | 1016.4 |
| 20260507034055 | 7 | 0 | 0.0 | 0.0 | 0.00 | 1.30 | 1.19 | 87 | 1016.4 |
| 20260507033553 | 8 | 0 | 0.0 | 0.0 | 0.00 | 1.30 | 1.19 | 87 | 1016.4 |
| 20260507033055 | 8 | 0 | 0.0 | 0.0 | 0.00 | 1.30 | 1.19 | 87 | 1016.5 |
| 20260507032554 | 7 | 0 | 0.0 | 0.0 | 0.00 | 1.30 | 1.19 | 87 | 1016.4 |
| 20260507032052 | 7 | 0 | 0.0 | 0.0 | 0.00 | 1.30 | 1.19 | 87 | 1016.3 |
| 20260507031556 | 7 | 0 | 0.0 | 0.0 | 0.00 | 1.30 | 1.19 | 87 | 1016.4 |
| 20260507031053 | 7 | 0 | 0.0 | 0.0 | 0.00 | 1.30 | 1.19 | 87 | 1016.5 |
| 20260507030553 | 7 | 0 | 0.0 | 0.0 | 0.00 | 1.30 | 1.19 | 87 | 1016.5 |
| 20260507030056 | 7 | 0 | 0.0 | 0.0 | 0.00 | 1.30 | 1.19 | 87 | 1016.5 |
| 20260507025554 | 7 | 0 | 0.0 | 0.0 | 0.00 | 1.32 | 1.19 | 87 | 1016.5 |
| 20260507025053 | 7 | 0 | 0.0 | 0.0 | 0.00 | 1.32 | 1.19 | 86 | 1016.5 |
| 20260507024553 | 7 | 0 | 0.0 | 0.0 | 0.00 | 1.32 | 1.19 | 85 | 1016.5 |
| 20260507024052 | 7 | 0 | 0.0 | 0.0 | 0.00 | 1.32 | 1.19 | 85 | 1016.4 |
| 20260507023552 | 7 | 0 | 0.0 | 0.0 | 0.00 | 1.32 | 1.19 | 85 | 1016.4 |
| 20260507023056 | 8 | 0 | 0.0 | 0.0 | 0.00 | 1.32 | 1.19 | 85 | 1016.3 |
| 20260507022553 | 8 | 0 | 0.0 | 0.0 | 0.00 | 1.32 | 1.19 | 85 | 1016.3 |
| 20260507022055 | 8 | 0 | 0.0 | 0.0 | 0.00 | 1.32 | 1.19 | 84 | 1016.2 |
| 20260507021557 | 8 | 0 | 0.0 | 0.0 | 0.00 | 1.32 | 1.19 | 84 | 1016.4 |
| 20260507021051 | 8 | 0 | 0.0 | 0.0 | 0.00 | 1.32 | 1.19 | 83 | 1016.3 |
| 20260507020555 | 8 | 0 | 0.0 | 0.0 | 0.00 | 1.32 | 1.19 | 83 | 1016.2 |
| 20260507020115 | 8 | 0 | 0.0 | 0.0 | 0.00 | 1.32 | 1.19 | 83 | 1016.2 |
| 20260507015551 | 8 | 0 | 0.0 | 0.0 | 0.00 | 1.52 | 1.19 | 83 | 1016.1 |
| 20260507015053 | 8 | 0 | 0.0 | 0.0 | 0.00 | 1.52 | 1.19 | 83 | 1016.1 |
| 20260507014559 | 8 | 0 | 0.0 | 0.0 | 0.00 | 1.52 | 1.19 | 82 | 1016.1 |
| 20260507014055 | 9 | 0 | 0.0 | 0.0 | 0.00 | 1.52 | 1.19 | 82 | 1016.1 |
| 20260507013553 | 9 | 0 | 0.0 | 0.0 | 0.00 | 1.52 | 1.19 | 81 | 1015.9 |
| 20260507013055 | 9 | 0 | 0.0 | 0.0 | 0.00 | 1.52 | 1.19 | 80 | 1015.8 |
| 20260507012552 | 9 | 0 | 0.0 | 0.0 | 0.00 | 1.52 | 1.19 | 79 | 1015.7 |
| 20260507012052 | 10 | 0 | 0.0 | 0.0 | 0.00 | 1.52 | 1.19 | 78 | 1015.5 |
| 20260507011553 | 10 | 0 | 0.0 | 0.0 | 0.00 | 1.52 | 1.19 | 78 | 1015.6 |
| 20260507011054 | 10 | 0 | 0.0 | 0.0 | 0.00 | 1.52 | 1.19 | 76 | 1015.5 |
| 20260507010552 | 10 | 0 | 0.0 | 0.0 | 0.00 | 1.52 | 1.19 | 75 | 1015.4 |
| 20260507010106 | 10 | 0 | 0.0 | 0.0 | 0.00 | 1.52 | 1.19 | 75 | 1015.4 |
| 20260507005555 | 11 | 0 | 0.0 | 0.0 | 0.00 | 1.83 | 1.19 | 75 | 1015.5 |
| 20260507005052 | 11 | 0 | 0.0 | 0.0 | 0.00 | 1.83 | 1.19 | 73 | 1015.5 |
| 20260507004557 | 11 | 0 | 0.0 | 0.0 | 0.00 | 1.83 | 1.19 | 73 | 1015.5 |
| 20260507004053 | 11 | 0 | 0.0 | 0.0 | 0.00 | 1.83 | 1.19 | 73 | 1015.4 |
| 20260507003553 | 11 | 0 | 0.0 | 0.0 | 0.00 | 1.83 | 1.19 | 74 | 1015.4 |
| 20260507003056 | 11 | 0 | 0.0 | 0.0 | 0.00 | 1.83 | 1.19 | 70 | 1015.4 |
| 20260507002552 | 11 | 0 | 0.0 | 0.0 | 0.00 | 1.83 | 1.19 | 70 | 1015.3 |
| 20260507002054 | 11 | 0 | 0.0 | 0.0 | 0.00 | 1.83 | 1.19 | 68 | 1015.4 |
| 20260507001558 | 11 | 0 | 0.0 | 0.0 | 0.00 | 1.83 | 1.19 | 68 | 1015.1 |
| 20260507001053 | 11 | 0 | 0.0 | 0.0 | 0.00 | 1.83 | 1.19 | 67 | 1015.2 |
| 20260507000555 | 12 | 0 | 0.0 | 0.0 | 0.00 | 1.83 | 1.19 | 68 | 1015.1 |
| 20260507000054 | 12 | 0 | 0.0 | 0.0 | 0.00 | 1.83 | 1.19 | 68 | 1015.0 |
| 20260506235551 | 12 | 0 | 0.0 | 1.6 | 0.00 | 1.93 | 1.19 | 70 | 1015.1 |
| 20260506235057 | 12 | 0 | 0.0 | 1.6 | 0.00 | 1.93 | 1.19 | 70 | 1015.1 |
| 20260506234600 | 12 | 0 | 0.0 | 0.0 | 0.00 | 1.93 | 1.19 | 69 | 1014.8 |
| 20260506234054 | 12 | 0 | 0.0 | 0.0 | 0.00 | 1.93 | 1.19 | 69 | 1014.9 |
| 20260506233556 | 12 | 0 | 0.0 | 0.0 | 0.00 | 1.93 | 1.19 | 68 | 1014.7 |
| 20260506233058 | 12 | 196 | 0.0 | 0.0 | 0.00 | 1.93 | 1.19 | 65 | 1014.9 |
| 20260506232554 | 12 | 0 | 0.0 | 3.2 | 0.00 | 1.93 | 1.19 | 66 | 1014.8 |
| 20260506232052 | 12 | 0 | 0.0 | 3.2 | 0.00 | 1.93 | 1.19 | 66 | 1014.9 |
| 20260506231608 | 12 | 0 | 0.0 | 3.2 | 0.00 | 1.93 | 1.19 | 65 | 1014.7 |
| 20260506231053 | 12 | 174 | 0.0 | 1.6 | 0.00 | 1.93 | 1.19 | 69 | 1014.6 |
| 20260506230550 | 12 | 0 | 0.0 | 0.0 | 0.00 | 1.93 | 1.19 | 67 | 1014.5 |
| 20260506230121 | 13 | 0 | 0.0 | 0.0 | 0.00 | 1.93 | 1.19 | 67 | 1014.6 |
| 20260506225553 | 13 | 0 | 0.0 | 0.0 | 0.00 | 1.96 | 1.19 | 66 | 1014.6 |
| 20260506225055 | 13 | 0 | 0.0 | 0.0 | 0.00 | 1.96 | 1.19 | 67 | 1014.6 |
| 20260506224553 | 13 | 0 | 0.0 | 0.0 | 0.00 | 1.96 | 1.19 | 62 | 1014.7 |
| 20260506224051 | 13 | 0 | 0.0 | 0.0 | 0.00 | 1.96 | 1.19 | 68 | 1014.6 |
| 20260506223551 | 13 | 0 | 0.0 | 0.0 | 0.00 | 1.96 | 1.19 | 62 | 1014.5 |
| 20260506223057 | 13 | 0 | 0.0 | 0.0 | 0.00 | 1.96 | 1.19 | 59 | 1014.6 |
| 20260506222552 | 14 | 0 | 0.0 | 0.0 | 0.00 | 1.96 | 1.19 | 63 | 1014.6 |
| 20260506222055 | 14 | 0 | 0.0 | 0.0 | 0.00 | 1.96 | 1.19 | 63 | 1014.9 |
| 20260506221615 | 14 | 0 | 0.0 | 3.2 | 0.00 | 1.96 | 1.19 | 65 | 1014.8 |
| 20260506221052 | 14 | 0 | 0.0 | 3.2 | 0.00 | 1.96 | 1.19 | 60 | 1014.9 |
| 20260506220552 | 14 | 188 | 0.0 | 0.0 | 0.00 | 1.96 | 1.19 | 63 | 1014.9 |
| 20260506220129 | 14 | 0 | 0.0 | 0.0 | 0.00 | 1.96 | 1.19 | 63 | 1015.1 |
| 20260506215552 | 14 | 0 | 0.0 | 0.0 | 0.00 | 2.01 | 1.19 | 66 | 1015.1 |
| 20260506215052 | 14 | 0 | 0.0 | 3.2 | 0.00 | 2.01 | 1.19 | 67 | 1015.1 |
| 20260506214558 | 13 | 0 | 0.0 | 3.2 | 0.00 | 2.01 | 1.19 | 64 | 1015.1 |
| 20260506214053 | 14 | 0 | 0.0 | 3.2 | 0.00 | 2.01 | 1.19 | 59 | 1015.0 |
| 20260506213552 | 13 | 0 | 0.0 | 1.6 | 0.00 | 2.01 | 1.19 | 58 | 1015.0 |
| 20260506213109 | 14 | 229 | 0.0 | 0.0 | 0.00 | 2.01 | 1.19 | 61 | 1014.8 |
| 20260506212552 | 14 | 0 | 0.0 | 0.0 | 0.00 | 2.01 | 1.19 | 61 | 1014.7 |
| 20260506212052 | 14 | 0 | 0.0 | 0.0 | 0.00 | 2.01 | 1.19 | 64 | 1014.9 |
| 20260506211555 | 14 | 0 | 0.0 | 0.0 | 0.00 | 2.01 | 1.19 | 59 | 1014.9 |
| 20260506211051 | 14 | 0 | 0.0 | 1.6 | 0.00 | 2.01 | 1.19 | 63 | 1014.7 |
| 20260506210553 | 14 | 0 | 0.0 | 1.6 | 0.00 | 2.01 | 1.19 | 56 | 1014.6 |
| 20260506210105 | 15 | 171 | 0.0 | 1.6 | 0.00 | 2.01 | 1.19 | 59 | 1014.5 |
| 20260506205552 | 15 | 205 | 0.0 | 0.0 | 0.00 | 2.21 | 1.19 | 60 | 1014.4 |
| 20260506205052 | 15 | 0 | 0.0 | 6.4 | 0.00 | 2.21 | 1.19 | 61 | 1014.6 |
| 20260506204606 | 15 | 0 | 0.0 | 6.4 | 0.00 | 2.21 | 1.19 | 64 | 1014.5 |
| 20260506204051 | 15 | 0 | 0.0 | 3.2 | 0.00 | 2.21 | 1.19 | 59 | 1014.4 |
| 20260506203552 | 15 | 0 | 0.0 | 6.4 | 0.00 | 2.21 | 1.19 | 65 | 1014.6 |
| 20260506203057 | 14 | 0 | 0.0 | 6.4 | 0.00 | 2.21 | 1.19 | 62 | 1014.4 |
| 20260506202552 | 14 | 0 | 0.0 | 4.8 | 0.00 | 2.21 | 1.19 | 61 | 1014.6 |
| 20260506202054 | 14 | 0 | 0.0 | 4.8 | 0.00 | 2.21 | 1.19 | 59 | 1014.7 |
| 20260506201557 | 14 | 0 | 0.0 | 0.0 | 0.00 | 2.21 | 1.19 | 61 | 1014.7 |
| 20260506201055 | 14 | 0 | 0.0 | 0.0 | 0.00 | 2.21 | 1.19 | 63 | 1014.7 |
| 20260506200552 | 14 | 0 | 0.0 | 0.0 | 0.00 | 2.21 | 1.19 | 60 | 1014.6 |
| 20260506200053 | 14 | 0 | 0.0 | 0.0 | 0.00 | 2.21 | 1.19 | 63 | 1014.8 |
| 20260506195557 | 14 | 0 | 0.0 | 0.0 | 0.00 | 2.57 | 1.19 | 65 | 1014.7 |
| 20260506195052 | 14 | 0 | 0.0 | 1.6 | 0.00 | 2.57 | 1.19 | 67 | 1014.9 |
| 20260506194600 | 14 | 0 | 0.0 | 1.6 | 0.00 | 2.57 | 1.19 | 61 | 1014.8 |
| 20260506194054 | 14 | 0 | 0.0 | 1.6 | 0.00 | 2.57 | 1.19 | 63 | 1014.7 |
| 20260506193552 | 14 | 210 | 0.0 | 4.8 | 0.00 | 2.57 | 1.19 | 63 | 1014.7 |
| 20260506193054 | 14 | 207 | 0.0 | 4.8 | 0.00 | 2.57 | 1.19 | 61 | 1014.6 |
| 20260506192552 | 14 | 0 | 1.6 | 4.8 | 0.00 | 2.57 | 1.19 | 60 | 1014.6 |
| 20260506192052 | 14 | 181 | 0.0 | 4.8 | 0.00 | 2.57 | 1.19 | 60 | 1014.4 |
| 20260506191604 | 15 | 0 | 1.6 | 4.8 | 0.00 | 2.57 | 1.19 | 62 | 1014.2 |
| 20260506191052 | 15 | 0 | 0.0 | 3.2 | 0.00 | 2.57 | 1.19 | 59 | 1014.3 |
| 20260506190552 | 15 | 0 | 0.0 | 4.8 | 0.00 | 2.57 | 1.19 | 64 | 1014.2 |
| 20260506190055 | 15 | 0 | 0.0 | 4.8 | 0.00 | 2.57 | 1.19 | 64 | 1014.2 |
| 20260506185551 | 15 | 211 | 0.0 | 4.8 | 0.00 | 2.59 | 1.19 | 62 | 1014.2 |
| 20260506185051 | 15 | 110 | 0.0 | 6.4 | 0.00 | 2.59 | 1.19 | 57 | 1014.2 |
| 20260506184622 | 16 | 0 | 0.0 | 8.0 | 0.00 | 2.59 | 1.19 | 54 | 1014.1 |
| 20260506184053 | 16 | 203 | 0.0 | 8.0 | 0.00 | 2.59 | 1.19 | 60 | 1014.2 |
| 20260506183558 | 16 | 0 | 0.0 | 8.0 | 0.00 | 2.59 | 1.19 | 60 | 1014.1 |
| 20260506183102 | 16 | 77 | 1.6 | 6.4 | 0.00 | 2.59 | 1.19 | 54 | 1014.1 |
| 20260506182552 | 16 | 198 | 0.0 | 8.0 | 0.00 | 2.59 | 1.19 | 54 | 1014.1 |
| 20260506182052 | 16 | 207 | 0.0 | 8.0 | 0.00 | 2.59 | 1.19 | 54 | 1014.1 |
| 20260506181559 | 16 | 142 | 1.6 | 8.0 | 0.00 | 2.59 | 1.19 | 60 | 1014.0 |
| 20260506181052 | 16 | 191 | 0.0 | 4.8 | 0.00 | 2.59 | 1.19 | 54 | 1014.2 |
| 20260506180552 | 16 | 216 | 0.0 | 9.7 | 0.00 | 2.59 | 1.19 | 52 | 1014.1 |
| 20260506180057 | 16 | 0 | 1.6 | 9.7 | 0.00 | 2.59 | 1.19 | 50 | 1014.3 |
| 20260506175552 | 16 | 197 | 1.6 | 6.4 | 0.00 | 2.59 | 1.19 | 51 | 1014.3 |
| 20260506175051 | 16 | 0 | 0.0 | 8.0 | 0.00 | 2.59 | 1.19 | 58 | 1014.4 |
| 20260506174552 | 16 | 198 | 3.2 | 8.0 | 0.00 | 2.59 | 1.19 | 51 | 1014.6 |
| 20260506174052 | 16 | 58 | 0.0 | 4.8 | 0.00 | 2.59 | 1.19 | 60 | 1014.5 |
| 20260506173552 | 16 | 77 | 1.6 | 4.8 | 0.00 | 2.59 | 1.19 | 52 | 1014.6 |
| 20260506173100 | 16 | 163 | 0.0 | 3.2 | 0.00 | 2.59 | 1.19 | 59 | 1014.6 |
| 20260506172551 | 15 | 0 | 0.0 | 1.6 | 0.00 | 2.59 | 1.19 | 62 | 1014.6 |
| 20260506172051 | 15 | 0 | 0.0 | 4.8 | 0.00 | 2.59 | 1.19 | 61 | 1014.5 |
| 20260506171607 | 15 | 0 | 0.0 | 4.8 | 0.00 | 2.59 | 1.19 | 67 | 1014.5 |
| 20260506171051 | 15 | 193 | 1.6 | 4.8 | 0.00 | 2.59 | 1.19 | 61 | 1014.6 |
| 20260506170551 | 15 | 181 | 1.6 | 8.0 | 0.00 | 2.59 | 1.19 | 57 | 1014.7 |
| 20260506170059 | 14 | 136 | 1.6 | 8.0 | 0.00 | 2.59 | 1.19 | 58 | 1014.9 |
| 20260506165552 | 14 | 111 | 0.0 | 1.6 | 0.00 | 2.59 | 1.19 | 61 | 1015.0 |
| 20260506165053 | 13 | 0 | 0.0 | 4.8 | 0.00 | 2.59 | 1.19 | 62 | 1014.9 |
| 20260506164554 | 13 | 0 | 1.6 | 4.8 | 0.00 | 2.59 | 1.19 | 62 | 1014.9 |
| 20260506164051 | 14 | 188 | 1.6 | 4.8 | 0.00 | 2.59 | 1.19 | 57 | 1015.1 |
| 20260506163552 | 14 | 55 | 1.6 | 6.4 | 0.00 | 2.59 | 1.19 | 59 | 1015.0 |
| 20260506163106 | 14 | 0 | 1.6 | 6.4 | 0.00 | 2.59 | 1.19 | 60 | 1015.0 |
| 20260506162551 | 14 | 221 | 0.0 | 4.8 | 0.00 | 2.59 | 1.19 | 60 | 1014.8 |
| 20260506162053 | 14 | 179 | 1.6 | 6.4 | 0.00 | 2.59 | 1.19 | 57 | 1014.8 |
| 20260506161557 | 14 | 187 | 0.0 | 8.0 | 0.00 | 2.59 | 1.19 | 60 | 1014.7 |
| 20260506161054 | 13 | 0 | 1.6 | 8.0 | 0.00 | 2.59 | 1.19 | 64 | 1014.9 |
| 20260506160551 | 13 | 249 | 1.6 | 4.8 | 0.00 | 2.59 | 1.19 | 66 | 1014.9 |
| 20260506160109 | 13 | 0 | 1.6 | 6.4 | 0.00 | 2.59 | 1.19 | 66 | 1014.9 |
| 20260506155554 | 12 | 198 | 1.6 | 6.4 | 0.00 | 2.59 | 1.19 | 64 | 1014.9 |
| 20260506155051 | 12 | 226 | 0.0 | 9.7 | 0.00 | 2.59 | 1.19 | 69 | 1014.7 |
| 20260506154559 | 12 | 191 | 1.6 | 9.7 | 0.00 | 2.59 | 1.19 | 69 | 1014.6 |
| 20260506154058 | 12 | 223 | 1.6 | 4.8 | 0.00 | 2.59 | 1.19 | 71 | 1014.5 |
| 20260506153553 | 12 | 203 | 0.0 | 9.7 | 0.00 | 2.59 | 1.19 | 68 | 1014.5 |
| 20260506153057 | 11 | 0 | 1.6 | 9.7 | 0.00 | 2.59 | 1.19 | 67 | 1014.3 |
| 20260506152552 | 11 | 118 | 1.6 | 6.4 | 0.00 | 2.59 | 1.19 | 71 | 1014.4 |
| 20260506152052 | 11 | 0 | 0.0 | 4.8 | 0.00 | 2.59 | 1.19 | 76 | 1014.6 |
| 20260506151557 | 11 | 185 | 0.0 | 6.4 | 0.00 | 2.59 | 1.19 | 76 | 1015.0 |
| 20260506151051 | 11 | 192 | 0.0 | 6.4 | 0.00 | 2.59 | 1.19 | 73 | 1015.1 |
| 20260506150551 | 11 | 0 | 0.0 | 6.4 | 0.00 | 2.59 | 1.19 | 76 | 1015.0 |
| 20260506150055 | 11 | 0 | 1.6 | 6.4 | 0.00 | 2.59 | 1.19 | 73 | 1014.6 |
| 20260506145552 | 11 | 236 | 1.6 | 6.4 | 0.00 | 2.59 | 1.19 | 74 | 1014.0 |
| 20260506145053 | 10 | 0 | 0.0 | 3.2 | 0.00 | 2.59 | 1.19 | 78 | 1014.3 |